Location: Arboyeti
(42.1122°N, 44.6017°E)
Time: 20:14:50
(UTC+00:00)

CARTOSAT-1 - Pass Details

Date: 19 April 2021
Orbit: 615 x 619 km, 97.8° (Epoch: 18 May)

Event Time Altitude Azimuth Distance (km) Brightness Sun altitude
Exits shadow 18:06:43 46° 54° (NE) 834 4.0 -23.2°
Drops below altitude 10° 18:10:29 10° 359° (N) 1,992 6.7 -23.7°
Sets 18:12:44 0° 354° (N) 2,902 7.8 -24.0°
